Radiation Dose at Monitoring Post of Fukushima Daini Nuclear Power Station
Date,Time,MP-1(microSv/h),MP-2(microSv/h),MP-3(microSv/h),MP-4(microSv/h),MP-5(microSv/h),MP-6(microSv/h),MP-7(microSv/h),Wind Direction,Wind Velocity(m/s),Rain
2015/01/21,00:00,-,0.376,0.627,0.569,0.560,0.258,0.232,north,4.9,No
2015/01/21,00:10,-,0.376,0.628,0.570,0.560,0.258,0.232,north-northwest,4.7,No
2015/01/21,00:20,-,0.376,0.628,0.569,0.560,0.257,0.232,north-northwest,4.1,No
2015/01/21,00:30,-,0.377,0.626,0.568,0.559,0.259,0.232,north,4.1,No
2015/01/21,00:40,-,0.375,0.627,0.569,0.559,0.258,0.231,north-northwest,3.6,No
2015/01/21,00:50,-,0.376,0.627,0.568,0.557,0.259,0.233,north,3.3,No
2015/01/21,01:00,-,0.375,0.628,0.569,0.560,0.258,0.232,north,3.7,No
2015/01/21,01:10,-,0.375,0.628,0.569,0.558,0.259,0.232,north,2.7,No
2015/01/21,01:20,-,0.376,0.627,0.567,0.559,0.259,0.232,north,2.5,No
2015/01/21,01:30,-,0.376,0.628,0.569,0.559,0.259,0.232,north,3.1,No
2015/01/21,01:40,-,0.376,0.628,0.567,0.559,0.258,0.232,north,3.5,No
2015/01/21,01:50,-,0.375,0.627,0.568,0.558,0.259,0.232,north,3.1,No
2015/01/21,02:00,-,0.374,0.627,0.569,0.559,0.258,0.233,north,2.7,No
2015/01/21,02:10,-,0.376,0.626,0.567,0.559,0.260,0.233,north,2.4,No
2015/01/21,02:20,-,0.375,0.627,0.567,0.559,0.259,0.233,north,2.1,No
2015/01/21,02:30,-,0.374,0.628,0.571,0.558,0.259,0.232,north,2.1,No
2015/01/21,02:40,-,0.375,0.626,0.569,0.559,0.258,0.233,north,2.1,No
2015/01/21,02:50,-,0.375,0.629,0.568,0.560,0.259,0.231,north,1.7,No
2015/01/21,03:00,-,0.375,0.626,0.570,0.558,0.257,0.231,north,0.8,No
2015/01/21,03:10,-,0.375,0.628,0.569,0.560,0.257,0.232,north,1.1,No
2015/01/21,03:20,-,0.375,0.626,0.567,0.561,0.258,0.233,north,1.5,No
2015/01/21,03:30,-,0.376,0.627,0.569,0.560,0.259,0.232,north-northwest,2.2,No
2015/01/21,03:40,-,0.375,0.626,0.570,0.560,0.258,0.233,north-northwest,3.3,No
2015/01/21,03:50,-,0.376,0.627,0.569,0.559,0.258,0.233,north-northwest,3.6,No
2015/01/21,04:00,-,0.376,0.626,0.568,0.560,0.257,0.231,north,1.8,No
2015/01/21,04:10,-,0.374,0.628,0.568,0.559,0.257,0.232,north,1.3,No
2015/01/21,04:20,-,0.375,0.626,0.568,0.559,0.257,0.233,north,2.2,No
2015/01/21,04:30,-,0.376,0.626,0.569,0.560,0.257,0.232,north,3.3,No
2015/01/21,04:40,-,0.375,0.627,0.569,0.558,0.258,0.232,north,3.8,No
2015/01/21,04:50,-,0.376,0.628,0.570,0.560,0.259,0.230,north,3.1,No
2015/01/21,05:00,-,0.375,0.628,0.570,0.558,0.259,0.232,north,2.9,No
2015/01/21,05:10,-,0.375,0.627,0.567,0.560,0.258,0.231,north,2.2,No
2015/01/21,05:20,-,0.375,0.627,0.568,0.558,0.258,0.232,north,2.6,No
2015/01/21,05:30,-,0.376,0.627,0.569,0.559,0.259,0.232,north,3.6,No
2015/01/21,05:40,-,0.374,0.627,0.569,0.558,0.258,0.232,north-northwest,3.3,No
2015/01/21,05:50,-,0.375,0.626,0.569,0.558,0.258,0.233,north-northwest,3.0,No
2015/01/21,06:00,-,0.376,0.626,0.568,0.558,0.258,0.232,north-northwest,1.7,No
2015/01/21,06:10,-,0.375,0.625,0.568,0.558,0.257,0.233,north-northwest,1.7,No
2015/01/21,06:20,-,0.375,0.626,0.568,0.558,0.257,0.231,north,1.9,No
2015/01/21,06:30,-,0.374,0.627,0.567,0.559,0.257,0.232,north,1.9,No
2015/01/21,06:40,-,0.375,0.628,0.569,0.559,0.257,0.231,north,1.7,No
2015/01/21,06:50,-,0.374,0.627,0.569,0.558,0.258,0.231,north,1.6,No
2015/01/21,07:00,-,0.374,0.627,0.568,0.558,0.257,0.231,north,1.6,No
2015/01/21,07:10,-,0.374,0.626,0.568,0.559,0.256,0.231,north,2.2,No
2015/01/21,07:20,-,0.373,0.628,0.569,0.559,0.257,0.233,north,2.2,No
2015/01/21,07:30,-,0.375,0.627,0.568,0.558,0.258,0.232,north,1.7,No
2015/01/21,07:40,-,0.375,0.626,0.568,0.559,0.257,0.233,north-northwest,1.8,No
2015/01/21,07:50,-,0.375,0.625,0.568,0.559,0.256,0.232,north-northwest,2.0,No
2015/01/21,08:00,-,0.375,0.626,0.569,0.559,0.257,0.231,north-northwest,1.9,No
2015/01/21,08:10,-,0.375,0.628,0.569,0.560,0.257,0.232,northwest,1.1,No
2015/01/21,08:20,-,0.374,0.626,0.569,0.559,0.257,0.232,northwest,0.8,No
2015/01/21,08:30,-,0.374,0.627,0.569,0.558,0.256,0.232,north-northwest,1.1,No
2015/01/21,08:40,-,0.374,0.627,0.570,0.558,0.258,0.230,north-northwest,2.0,No
2015/01/21,08:50,-,0.376,0.628,0.570,0.559,0.257,0.231,north-northwest,1.7,No
2015/01/21,09:00,-,0.375,0.626,0.570,0.558,0.256,0.232,northwest,1.7,No
2015/01/21,09:10,-,0.376,0.628,0.571,0.559,0.257,0.232,north-northwest,2.0,No
2015/01/21,09:20,-,0.375,0.628,0.569,0.561,0.257,0.229,north,1.5,No
2015/01/21,09:30,-,0.376,0.626,0.569,0.560,0.257,0.231,northwest,1.4,No
2015/01/21,09:40,-,0.377,0.628,0.569,0.561,0.257,0.231,northeast,2.2,No
2015/01/21,09:50,-,0.375,0.628,0.568,0.560,0.257,0.230,northeast,2.4,No
2015/01/21,10:00,-,0.376,0.628,0.569,0.559,0.257,0.231,north-northeast,0.6,No
2015/01/21,10:10,-,0.374,0.628,0.570,0.561,0.256,0.230,northeast,1.9,No
2015/01/21,10:20,-,0.376,0.628,0.568,0.560,0.257,0.232,north-northeast,1.4,No
2015/01/21,10:30,-,0.376,0.627,0.570,0.559,0.257,0.231,-,CALM,No
2015/01/21,10:40,-,0.377,0.630,0.570,0.560,0.257,0.233,east-northeast,0.6,No
2015/01/21,10:50,-,0.374,0.628,0.571,0.561,0.257,0.231,east-northeast,0.6,No
2015/01/21,11:00,-,0.376,0.627,0.570,0.558,0.257,0.233,east,1.2,No
2015/01/21,11:10,-,0.378,0.627,0.571,0.559,0.258,0.232,east-southeast,0.8,No
2015/01/21,11:20,-,0.375,0.628,0.570,0.559,0.257,0.231,south-southeast,1.8,No
2015/01/21,11:30,-,0.376,0.628,0.570,0.560,0.258,0.232,south-southeast,1.9,No
2015/01/21,11:40,-,0.376,0.628,0.570,0.561,0.257,0.231,east-southeast,0.9,No
2015/01/21,11:50,-,0.377,0.629,0.569,0.560,0.258,0.232,south-southeast,1.1,No
2015/01/21,12:00,-,0.375,0.629,0.570,0.559,0.258,0.233,east-southeast,1.2,No
2015/01/21,12:10,-,0.377,0.629,0.572,0.559,0.258,0.232,southeast,0.7,No
2015/01/21,12:20,-,0.376,0.629,0.571,0.559,0.258,0.230,south-southeast,1.6,No
2015/01/21,12:30,-,0.378,0.629,0.571,0.559,0.257,0.232,south-southeast,1.5,No
2015/01/21,12:40,-,0.375,0.628,0.570,0.560,0.257,0.233,south,1.5,No
2015/01/21,12:50,-,0.376,0.628,0.569,0.560,0.258,0.232,south,2.2,No
2015/01/21,13:00,-,0.376,0.628,0.570,0.560,0.258,0.230,south-southeast,1.6,No
2015/01/21,13:10,-,0.377,0.627,0.571,0.559,0.258,0.233,south-southeast,2.5,No
2015/01/21,13:20,-,0.377,0.629,0.571,0.560,0.259,0.231,south-southwest,2.1,No
2015/01/21,13:30,-,0.376,0.630,0.571,0.560,0.257,0.231,-,CALM,No
2015/01/21,13:40,-,0.377,0.628,0.571,0.561,0.258,0.231,southeast,1.4,No
2015/01/21,13:50,-,0.376,0.628,0.572,0.560,0.258,0.230,south-southeast,2.2,No
2015/01/21,14:00,-,0.376,0.627,0.570,0.558,0.259,0.232,south,2.0,No
2015/01/21,14:10,-,0.376,0.628,0.569,0.560,0.258,0.231,south,2.0,No
2015/01/21,14:20,-,0.376,0.630,0.572,0.559,0.257,0.232,south,2.2,No
2015/01/21,14:30,-,0.376,0.627,0.571,0.560,0.258,0.231,south,2.5,No
2015/01/21,14:40,-,0.376,0.627,0.570,0.560,0.258,0.231,south,3.3,No
2015/01/21,14:50,-,0.377,0.628,0.571,0.560,0.258,0.232,south-southeast,1.9,No
2015/01/21,15:00,-,0.377,0.627,0.570,0.560,0.258,0.231,south-southwest,2.3,No
2015/01/21,15:10,-,0.377,0.629,0.569,0.559,0.258,0.232,south,2.9,No
2015/01/21,15:20,-,0.376,0.629,0.571,0.560,0.257,0.232,south,2.3,No
2015/01/21,15:30,-,0.377,0.627,0.572,0.559,0.257,0.232,south-southwest,0.8,No
2015/01/21,15:40,-,0.377,0.629,0.571,0.560,0.258,0.231,south-southwest,1.9,No
2015/01/21,15:50,-,0.377,0.629,0.571,0.559,0.258,0.232,south-southwest,2.5,No
2015/01/21,16:00,-,0.376,0.628,0.571,0.558,0.258,0.232,south-southwest,3.5,No
2015/01/21,16:10,-,0.376,0.630,0.571,0.559,0.258,0.231,south-southwest,4.2,No
2015/01/21,16:20,-,0.377,0.627,0.571,0.561,0.259,0.233,south-southwest,4.6,No
2015/01/21,16:30,-,0.375,0.628,0.571,0.559,0.258,0.232,south-southwest,3.3,No
2015/01/21,16:40,-,0.376,0.628,0.570,0.559,0.258,0.232,south-southwest,3.5,No
2015/01/21,16:50,-,0.375,0.629,0.571,0.560,0.258,0.233,south-southwest,3.3,No
2015/01/21,17:00,-,0.378,0.627,0.570,0.560,0.258,0.231,south-southwest,3.1,No
2015/01/21,17:10,-,0.376,0.626,0.571,0.560,0.259,0.233,south-southwest,4.0,Yes
2015/01/21,17:20,-,0.376,0.628,0.571,0.560,0.258,0.232,south-southwest,2.8,Yes
2015/01/21,17:30,-,0.375,0.628,0.570,0.559,0.258,0.233,south-southwest,3.9,Yes
2015/01/21,17:40,-,0.377,0.629,0.571,0.561,0.258,0.233,south-southwest,2.8,Yes
2015/01/21,17:50,-,0.377,0.627,0.573,0.560,0.259,0.234,south-southwest,4.2,Yes
2015/01/21,18:00,-,0.378,0.627,0.571,0.563,0.260,0.235,southwest,3.5,Yes
2015/01/21,18:10,-,0.378,0.629,0.572,0.564,0.262,0.234,southwest,3.3,Yes
2015/01/21,18:20,-,0.378,0.630,0.573,0.562,0.260,0.236,southwest,4.1,Yes
2015/01/21,18:30,-,0.378,0.629,0.571,0.561,0.260,0.234,southwest,2.2,Yes
2015/01/21,18:40,-,0.378,0.628,0.572,0.562,0.260,0.235,southwest,3.7,Yes
2015/01/21,18:50,-,0.379,0.629,0.571,0.562,0.260,0.234,southwest,3.4,Yes
2015/01/21,19:00,-,0.379,0.627,0.571,0.560,0.261,0.234,southwest,3.4,Yes
2015/01/21,19:10,-,0.377,0.626,0.571,0.559,0.259,0.233,southwest,3.9,Yes
2015/01/21,19:20,-,0.377,0.626,0.569,0.561,0.259,0.234,southwest,3.4,Yes
2015/01/21,19:30,-,0.378,0.627,0.569,0.560,0.260,0.235,southwest,3.2,Yes
2015/01/21,19:40,-,0.378,0.626,0.570,0.559,0.260,0.233,southwest,3.4,Yes
2015/01/21,19:50,-,0.378,0.627,0.569,0.560,0.259,0.234,southwest,3.2,Yes
2015/01/21,20:00,-,0.377,0.625,0.570,0.560,0.261,0.234,southwest,2.6,Yes
2015/01/21,20:10,-,0.377,0.627,0.569,0.561,0.261,0.234,southwest,3.4,Yes
2015/01/21,20:20,-,0.376,0.624,0.569,0.559,0.260,0.232,south-southwest,2.5,Yes
2015/01/21,20:30,-,0.376,0.625,0.569,0.560,0.260,0.232,south-southwest,1.5,Yes
2015/01/21,20:40,-,0.377,0.624,0.570,0.561,0.259,0.232,south-southwest,1.3,Yes
2015/01/21,20:50,-,0.376,0.628,0.567,0.557,0.259,0.233,south-southwest,1.5,Yes
2015/01/21,21:00,-,0.377,0.624,0.569,0.559,0.260,0.233,southwest,1.2,Yes
2015/01/21,21:10,-,0.378,0.627,0.566,0.560,0.260,0.232,south-southeast,1.5,Yes
2015/01/21,21:20,-,0.377,0.625,0.567,0.560,0.261,0.233,south,1.2,Yes
2015/01/21,21:30,-,0.377,0.622,0.566,0.559,0.260,0.233,south,1.3,Yes
2015/01/21,21:40,-,0.378,0.622,0.566,0.557,0.259,0.232,south-southeast,1.1,Yes
2015/01/21,21:50,-,0.375,0.621,0.566,0.557,0.260,0.233,east-southeast,0.8,Yes
2015/01/21,22:00,-,0.377,0.622,0.564,0.558,0.261,0.232,south-southwest,2.3,Yes
2015/01/21,22:10,-,0.375,0.620,0.564,0.558,0.259,0.231,-,CALM,Yes
2015/01/21,22:20,-,0.376,0.619,0.563,0.557,0.260,0.232,east-southeast,0.8,Yes
2015/01/21,22:30,-,0.375,0.619,0.562,0.556,0.259,0.231,east,1.4,Yes
2015/01/21,22:40,-,0.375,0.616,0.561,0.558,0.260,0.230,-,CALM,Yes
2015/01/21,22:50,-,0.375,0.614,0.560,0.555,0.259,0.230,east-southeast,0.8,Yes
2015/01/21,23:00,-,0.375,0.615,0.562,0.555,0.258,0.230,-,CALM,Yes
2015/01/21,23:10,-,0.376,0.615,0.560,0.555,0.258,0.229,-,CALM,Yes
2015/01/21,23:20,-,0.373,0.613,0.561,0.555,0.258,0.230,-,CALM,Yes
2015/01/21,23:30,-,0.375,0.612,0.557,0.553,0.259,0.231,west-northwest,1.3,Yes
2015/01/21,23:40,-,0.374,0.613,0.558,0.553,0.259,0.230,west-northwest,1.6,Yes
2015/01/21,23:50,-,0.374,0.611,0.556,0.552,0.258,0.231,north-northwest,1.7,Yes
